[[{"header":{"parameterUnit":"m.s-1","parameterCategory":1,"la1":30.2991,"la2":30.254,"lo1":-89.0895,"lo2":-89.0444,"dy":0.0017,"dx":0.0017,"nx":28,"ny":28,"refTime":"2025-01-03T09:00:00:Z","depth":0,"parameterNumber":2,"parameterNumberName":"U-component_of_WINDS"},"data":[0,0,0,0,0,0,0,0,0,0,0,0,0,0,0,0,0,0,0,0,0,0,0,0,0,0,0,0,0,0,0,0,0,0,0,0,0,0,0,0,0,0,0,0,0,0,0,0,0,0,0,0,0,0,0,0,0,0,-1.3307,-1.3308,0,-1.3383,-1.3384,-1.3384,-1.3326,-1.3323,-1.3321,-1.3318,-1.3401,-1.3405,-1.341,0,0,0,0,0,0,0,0,0,0,0,0,0,-1.3118,-1.3122,-1.3307,-1.3308,-1.3309,-1.3383,-1.3384,-1.3385,-1.3326,-1.3323,-1.332,-1.3317,-1.3399,-1.3405,-1.341,0,0,0,0,0,0,0,0,0,0,0,0,0,-1.3197,-1.3123,-1.3307,-1.3289,-1.3288,-1.3382,-1.3384,-1.3385,-1.3327,-1.3323,-1.3319,-1.3316,-1.3398,-1.3404,-1.3411,-1.3529,0,0,-1.3432,-1.3435,0,0,0,0,0,0,0,0,-1.3193,-1.3205,-1.3291,-1.329,-1.3289,-1.3341,-1.3347,-1.3433,-1.3328,-1.3312,-1.3318,-1.3314,-1.3384,-1.3392,-1.3415,-1.3533,-1.3536,-1.3432,-1.3437,-1.344,-1.3441,0,0,0,0,0,0,0,-1.3188,-1.3201,-1.3337,-1.3292,-1.3291,-1.3278,-1.3286,-1.3363,-1.3369,-1.3313,-1.3309,-1.3319,-1.3383,-1.3408,-1.3416,-1.3538,-1.3432,-1.3438,-1.3443,-1.3445,-1.3758,-1.3762,0,0,0,0,0,0,-1.3183,-1.3197,-1.3335,-1.334,-1.3231,-1.3285,-1.3293,-1.3328,-1.3368,-1.337,-1.3322,-1.3316,-1.3398,-1.3408,-1.3419,-1.3561,-1.3439,-1.3446,-1.345,-1.3754,-1.3759,-1.3763,0,0,0,0,0,0,-1.3179,-1.3196,-1.3332,-1.3267,-1.3283,-1.3292,-1.3333,-1.3332,-1.3357,-1.3374,-1.3375,-1.3346,-1.3396,-1.3409,-1.3502,-1.3563,-1.3449,-1.3455,-1.3749,-1.3755,-1.3761,-1.3845,0,0,0,0,0,0,-1.3174,-1.3195,-1.3239,-1.3268,-1.3287,-1.3413,-1.3336,-1.3336,-1.3368,-1.3361,-1.3397,-1.34,-1.3394,-1.3492,-1.3509,-1.357,-1.346,-1.3744,-1.3752,-1.3759,-1.3837,-1.3854,-1.3868,0,0,0,0,0,-1.3168,-1.326,-1.3241,-1.3258,-1.3342,-1.3416,-1.3427,-1.3417,-1.3373,-1.3418,-1.3429,-1.3398,-1.3553,-1.3502,-1.352,-1.3585,-1.374,-1.3749,-1.3759,-1.383,-1.3851,-1.3868,0,0,0,0,0,0,-1.324,-1.3264,-1.3243,-1.3348,-1.338,-1.3406,-1.3463,-1.3439,-1.3485,-1.3477,-1.3464,-1.3473,-1.357,-1.3586,-1.3529,-1.3702,-1.364,-1.3653,-1.3688,-1.3707,-1.3722,-1.3717,-1.3466,0,0,0,0,0,-1.3267,-1.3324,-1.3343,-1.3434,-1.3451,-1.3454,-1.3486,-1.3475,-1.3509,-1.3523,-1.3541,-1.3576,-1.3633,-1.3671,-1.3723,-1.3838,-1.3847,-1.3892,-1.3907,-1.392,-1.3932,-1.3996,-1.4017,-1.3795,-1.3795,-1.3794,0,0,-1.3326,-1.3346,-1.3383,-1.3449,-1.3473,-1.3533,-1.3466,-1.3533,-1.3579,-1.3534,-1.3622,-1.3637,-1.3675,-1.378,-1.3827,-1.3797,-1.3995,-1.3932,-1.3942,-1.3948,-1.4008,-1.4029,-1.4048,-1.3801,-1.38,-1.3799,0,0,-1.3465,-1.3485,-1.3563,-1.3588,-1.3624,-1.3625,-1.3644,-1.3674,-1.3681,-1.3769,-1.3737,-1.3792,-1.3889,-1.3918,-1.3946,-1.4095,-1.4069,-1.4113,-1.4194,-1.4256,-1.4273,-1.4289,-1.4344,-1.4363,-1.4125,-1.4125,-1.4125,0,-1.3534,-1.3622,-1.3607,-1.3676,-1.3707,-1.3667,-1.3747,-1.3772,-1.3825,-1.3848,-1.3812,-1.3934,-1.3957,-1.4068,-1.4105,-1.4128,-1.415,-1.4109,-1.4272,-1.4287,-1.4301,-1.4354,-1.4374,-1.413,-1.4129,-1.4129,-1.4128,0,-1.3706,-1.3768,-1.3827,-1.3878,-1.3914,-1.3989,-1.3987,-1.4026,-1.4012,-1.4018,-1.4109,-1.4135,-1.4193,-1.4218,-1.4206,-1.4329,-1.4309,-1.4273,-1.421,-1.4328,-1.4377,-1.4397,-1.4137,-1.4136,-1.4134,-1.4133,0,0,-1.3894,-1.3933,-1.3956,-1.3978,-1.4015,-1.4064,-1.4137,-1.4192,-1.4227,-1.4264,-1.4327,-1.441,-1.4376,-1.4408,-1.4398,-1.4452,-1.4571,-1.441,-1.441,-1.444,-1.471,-1.4738,-1.4762,-1.4553,-1.4556,-1.4559,-1.4707,0,-1.4035,-1.4161,-1.4149,-1.427,-1.4328,-1.429,-1.4354,-1.4385,-1.4392,-1.4444,-1.4452,-1.4512,-1.4462,-1.4481,-1.4533,-1.4545,-1.4625,-1.4534,-1.4613,-1.4616,-1.4607,-1.4787,-1.4817,-1.4955,-1.4726,-1.4729,-1.4732,0,-1.4217,-1.4259,-1.4385,-1.4413,-1.4437,-1.4495,-1.4545,-1.4594,-1.4628,-1.463,-1.4665,-1.4646,-1.4721,-1.4656,-1.4761,-1.47,-1.4731,-1.4742,-1.4747,-1.4756,-1.4682,-1.4803,-1.4999,-1.5021,-1.4761,-1.4759,-1.4757,0,-1.4343,-1.4432,-1.4519,-1.4539,-1.4574,-1.4615,-1.4632,-1.4662,-1.4696,-1.474,-1.4762,-1.4815,-1.4845,-1.4887,-1.4883,-1.4835,-1.4991,-1.4925,-1.4997,-1.4997,-1.5033,-1.5031,-1.5239,-1.505,-1.5049,-1.5049,-1.5049,0,-1.4503,-1.4583,-1.4576,-1.463,-1.4718,-1.4704,-1.4792,-1.4804,-1.4831,-1.4888,-1.4858,-1.4913,-1.4904,-1.4959,-1.4956,-1.5045,-1.5058,-1.5063,-1.5062,-1.5067,-1.5067,-1.5089,-1.508,-1.5055,-1.5053,-1.5052,-1.5051,0,-1.466,-1.4659,-1.4751,-1.4776,-1.4784,-1.4848,-1.487,-1.4922,-1.4926,-1.4998,-1.5015,-1.5022,-1.5085,-1.5085,-1.5158,-1.5156,-1.5265,-1.5252,-1.5253,-1.5251,-1.5324,-1.5318,-1.5556,-1.5587,-1.5375,-1.5377,-1.5379,0,-1.4764,-1.4823,-1.4854,-1.4889,-1.4908,-1.4965,-1.4999,-1.4988,-1.5025,-1.5069,-1.5116,-1.5175,-1.5223,-1.5326,-1.5339,-1.5395,-1.5384,-1.5463,-1.5392,-1.5396,-1.5388,-1.5385,-1.5392,-1.5478,-1.548,-1.5482,-1.5484,0,-1.4948,-1.4944,-1.4993,-1.5043,-1.5084,-1.5123,-1.5159,-1.519,-1.5183,-1.5226,-1.5289,-1.5326,-1.5399,-1.546,-1.5514,-1.5533,-1.5509,-1.5506,-1.5526,-1.5532,-1.5531,-1.5535,-1.5293,-1.5501,-1.5499,-1.5498,-1.5497,-1.5496,-1.5082,-1.5134,-1.5164,-1.522,-1.5245,-1.528,-1.533,-1.5339,-1.5391,-1.5449,-1.5439,-1.5511,-1.5544,-1.5613,-1.5637,-1.5694,-1.5666,-1.5695,-1.5702,-1.571,-1.5719,-1.552,-1.5703,-1.5703,-1.5702,-1.5702,-1.5702,0,-1.5266,-1.5283,-1.5335,-1.5386,-1.5431,-1.5401,-1.5439,-1.5479,-1.5542,-1.5574,-1.5621,-1.5694,-1.5753,-1.577,-1.5827,-1.587,-1.586,-1.5885,-1.5883,-1.5888,-1.5739,-1.5717,-1.5892,-1.5892,-1.5892,-1.5892,-1.5892,-1.5892,-1.5368,-1.5454,-1.5454,-1.5553,-1.5569,-1.5638,-1.5662,-1.5694,-1.572,-1.5803,-1.5851,-1.5861,-1.5888,-1.5947,-1.6,-1.6003,-1.6027,-1.6057,-1.6057,-1.5918,-1.5899,-1.588,-1.586,-1.6062,-1.6062,-1.6201,-1.6202,-1.6203]},{"header":{"parameterUnit":"m.s-1","parameterCategory":1,"la1":30.2991,"la2":30.254,"lo1":-89.0895,"lo2":-89.0444,"dy":0.0017,"dx":0.0017,"nx":28,"ny":28,"refTime":"2025-01-03T09:00:00:Z","depth":0,"parameterNumber":3,"parameterNumberName":"V-component_of_WINDS"},"data":[0,0,0,0,0,0,0,0,0,0,0,0,0,0,0,0,0,0,0,0,0,0,0,0,0,0,0,0,0,0,0,0,0,0,0,0,0,0,0,0,0,0,0,0,0,0,0,0,0,0,0,0,0,0,0,0,0,0,-3.6632,-3.6632,0,-3.6658,-3.6658,-3.6658,-3.6612,-3.661,-3.6608,-3.6607,-3.6632,-3.6634,-3.6636,0,0,0,0,0,0,0,0,0,0,0,0,0,-3.6539,-3.6541,-3.6632,-3.6632,-3.6633,-3.6658,-3.6658,-3.6658,-3.6612,-3.661,-3.6608,-3.6606,-3.6631,-3.6634,-3.6636,0,0,0,0,0,0,0,0,0,0,0,0,0,-3.6574,-3.6542,-3.6632,-3.6612,-3.6611,-3.6658,-3.6658,-3.6659,-3.6612,-3.661,-3.6608,-3.6605,-3.663,-3.6633,-3.6636,-3.6703,0,0,-3.6646,-3.6647,0,0,0,0,0,0,0,0,-3.6572,-3.6577,-3.6615,-3.6614,-3.6612,-3.6629,-3.6635,-3.6673,-3.6613,-3.6612,-3.6607,-3.6604,-3.6633,-3.6635,-3.6645,-3.6704,-3.6705,-3.6646,-3.6648,-3.665,-3.6651,0,0,0,0,0,0,0,-3.657,-3.6576,-3.6642,-3.6616,-3.6614,-3.6601,-3.6604,-3.6642,-3.6635,-3.6612,-3.6608,-3.6612,-3.6631,-3.6642,-3.6646,-3.6705,-3.6646,-3.6649,-3.6651,-3.6652,-3.6818,-3.6821,0,0,0,0,0,0,-3.657,-3.6574,-3.6641,-3.6643,-3.6586,-3.6605,-3.6608,-3.6626,-3.6634,-3.6633,-3.6614,-3.661,-3.6638,-3.6642,-3.6646,-3.6724,-3.665,-3.6653,-3.6654,-3.6816,-3.6819,-3.6822,0,0,0,0,0,0,-3.6568,-3.6576,-3.664,-3.6608,-3.6615,-3.6609,-3.663,-3.6628,-3.6639,-3.6636,-3.6635,-3.6627,-3.6636,-3.6642,-3.6689,-3.6724,-3.6654,-3.6657,-3.6813,-3.6817,-3.682,-3.688,0,0,0,0,0,0,-3.6566,-3.6576,-3.6602,-3.6609,-3.6617,-3.6684,-3.6632,-3.663,-3.6645,-3.6639,-3.6648,-3.6647,-3.6635,-3.6684,-3.6692,-3.6727,-3.6659,-3.681,-3.6815,-3.6819,-3.6875,-3.6885,-3.6894,0,0,0,0,0,-3.6563,-3.6618,-3.6604,-3.6612,-3.6649,-3.6686,-3.669,-3.6676,-3.6648,-3.6673,-3.6671,-3.6647,-3.6719,-3.669,-3.6698,-3.6734,-3.6807,-3.6813,-3.6819,-3.687,-3.6883,-3.6894,0,0,0,0,0,0,-3.6615,-3.6618,-3.6603,-3.6662,-3.6674,-3.6678,-3.671,-3.669,-3.671,-3.6704,-3.6685,-3.6687,-3.6738,-3.6741,-3.6708,-3.6798,-3.6758,-3.6766,-3.6795,-3.6807,-3.6816,-3.6815,-3.6662,0,0,0,0,0,-3.6634,-3.6664,-3.6665,-3.6717,-3.6723,-3.6716,-3.6731,-3.6719,-3.673,-3.6735,-3.6737,-3.6748,-3.6773,-3.679,-3.6813,-3.6875,-3.6875,-3.6904,-3.6914,-3.6922,-3.6928,-3.696,-3.6972,-3.684,-3.684,-3.684,0,0,-3.6672,-3.6678,-3.6698,-3.6727,-3.6735,-3.6766,-3.672,-3.6755,-3.6777,-3.674,-3.6785,-3.6786,-3.6797,-3.6852,-3.6876,-3.6856,-3.6965,-3.6929,-3.6935,-3.6937,-3.6967,-3.6979,-3.699,-3.6844,-3.6843,-3.6843,0,0,-3.6758,-3.6766,-3.6809,-3.6818,-3.6831,-3.6825,-3.6835,-3.6842,-3.6841,-3.6886,-3.6858,-3.6884,-3.6928,-3.6937,-3.6947,-3.7035,-3.7013,-3.7043,-3.7094,-3.7125,-3.7135,-3.7144,-3.7175,-3.7186,-3.705,-3.705,-3.705,0,-3.6804,-3.685,-3.6834,-3.687,-3.6883,-3.6852,-3.6895,-3.6904,-3.6923,-3.6933,-3.691,-3.6964,-3.6969,-3.7025,-3.7046,-3.7056,-3.7066,-3.7042,-3.7135,-3.7144,-3.7152,-3.7181,-3.7193,-3.7054,-3.7053,-3.7053,-3.7052,0,-3.6906,-3.6938,-3.6971,-3.6991,-3.7008,-3.7047,-3.7036,-3.7055,-3.7041,-3.7038,-3.7082,-3.7088,-3.7111,-3.7123,-3.711,-3.7177,-3.7163,-3.7138,-3.7098,-3.7169,-3.7195,-3.7206,-3.7059,-3.7057,-3.7056,-3.7055,0,0,-3.7026,-3.7036,-3.7048,-3.7056,-3.7067,-3.7091,-3.7128,-3.7151,-3.7167,-3.7181,-3.7212,-3.7249,-3.7225,-3.7237,-3.7225,-3.7252,-3.732,-3.7223,-3.7223,-3.724,-3.7392,-3.7411,-3.7424,-3.7305,-3.7307,-3.7309,-3.7391,0,-3.7111,-3.7176,-3.7162,-3.7226,-3.7254,-3.7224,-3.7256,-3.7266,-3.7263,-3.7286,-3.7283,-3.7309,-3.7277,-3.7283,-3.7309,-3.7306,-3.735,-3.73,-3.7332,-3.7334,-3.733,-3.7438,-3.7458,-3.7535,-3.7401,-3.7403,-3.7404,0,-3.7218,-3.7236,-3.7303,-3.7308,-3.732,-3.7349,-3.7368,-3.7391,-3.7401,-3.7397,-3.7409,-3.7391,-3.7427,-3.7386,-3.7435,-3.7401,-3.7413,-3.7414,-3.7417,-3.7419,-3.7373,-3.7443,-3.756,-3.7571,-3.7421,-3.742,-3.7418,0,-3.7299,-3.734,-3.7384,-3.7392,-3.7399,-3.7421,-3.7425,-3.7432,-3.7446,-3.7463,-3.7471,-3.7492,-3.7503,-3.7519,-3.7506,-3.7477,-3.7556,-3.7515,-3.7553,-3.7554,-3.7571,-3.757,-3.7692,-3.758,-3.758,-3.758,-3.7579,0,-3.7394,-3.7436,-3.742,-3.7448,-3.7493,-3.7476,-3.7521,-3.7522,-3.7528,-3.7554,-3.7529,-3.7554,-3.7536,-3.7559,-3.755,-3.7591,-3.7596,-3.7593,-3.759,-3.7595,-3.7596,-3.7603,-3.7597,-3.7583,-3.7582,-3.7581,-3.7581,0,-3.7492,-3.7483,-3.753,-3.7532,-3.7534,-3.7567,-3.7569,-3.7594,-3.7589,-3.7623,-3.7629,-3.7621,-3.7647,-3.7636,-3.7664,-3.7657,-3.771,-3.77,-3.7707,-3.7704,-3.7743,-3.7739,-3.7873,-3.7889,-3.7768,-3.7769,-3.777,0,-3.7554,-3.7585,-3.7591,-3.7607,-3.7612,-3.7638,-3.7652,-3.7636,-3.7652,-3.7665,-3.7688,-3.7712,-3.773,-3.7773,-3.7769,-3.7789,-3.7779,-3.7825,-3.7782,-3.7786,-3.7779,-3.7777,-3.778,-3.7833,-3.7834,-3.7836,-3.7837,0,-3.7664,-3.7657,-3.7679,-3.7699,-3.7717,-3.7732,-3.7744,-3.7758,-3.7743,-3.7761,-3.7788,-3.7802,-3.7829,-3.7853,-3.7871,-3.7874,-3.7852,-3.785,-3.786,-3.7865,-3.7868,-3.7866,-3.7729,-3.7847,-3.7846,-3.7845,-3.7845,-3.7844,-3.7744,-3.777,-3.7778,-3.7803,-3.7811,-3.7823,-3.7846,-3.7844,-3.7865,-3.7887,-3.7876,-3.7906,-3.7913,-3.7935,-3.7941,-3.7964,-3.7946,-3.796,-3.7964,-3.7968,-3.7973,-3.7865,-3.7967,-3.7967,-3.7966,-3.7966,-3.7966,0,-3.7853,-3.7856,-3.7879,-3.7897,-3.7916,-3.7894,-3.7907,-3.7924,-3.7951,-3.796,-3.7978,-3.8008,-3.803,-3.8028,-3.8048,-3.8067,-3.8057,-3.8073,-3.8071,-3.8072,-3.7988,-3.7977,-3.808,-3.808,-3.808,-3.808,-3.808,-3.808,-3.7911,-3.7954,-3.7948,-3.7993,-3.7996,-3.8026,-3.8035,-3.8045,-3.8052,-3.8086,-3.8105,-3.8103,-3.8107,-3.8127,-3.8147,-3.8145,-3.8154,-3.8172,-3.8167,-3.8089,-3.8078,-3.8067,-3.8057,-3.8174,-3.8175,-3.8249,-3.825,-3.825]}]]